This demonstration page uses our WeatherBlox Daily Observations layout. Learn more.

Left ArrowRight Arrow

44.89941, -97.11507

Hourly Observations for July 20, 2020

Temp ( °F °C ) Dew Point ( °F °C ) Humidity (%) Winds ( mph kmh ) Pressure ( in mb ) Visibility ( mi km ) Precip ( " mm )
12:53 am 00:53 Clear 64 17.8 58 14.4 81 81 Calm 29.99 1016 10 16 0.00 0.00
1:53 am 01:53 Clear 63 17.2 59 15 87 87 Calm 29.99 1016 10 16 0.00 0.00
2:53 am 02:53 Clear 63 17.2 58 14.4 84 84 Calm 29.98 1015 10 16 0.00 0.00
3:53 am 03:53 Clear 60 15.6 59 15 96 96 Calm 29.97 1015 10 16 0.00 0.00
4:53 am 04:53 Clear 60 15.6 57 13.9 90 90 Calm 29.98 1015 10 16 0.00 0.00
5:53 am 05:53 Clear 60 15.6 56 13.3 86 86 Calm 29.98 1015 10 16 0.00 0.00
6:53 am 06:53 Sunny 62 16.7 56 13.3 80 80 Calm 29.99 1016 10 16 0.00 0.00
7:53 am 07:53 Mostly Cloudy 66 18.9 57 13.9 73 73 ESE 3 6 30.00 1016 10 16 0.00 0.00
8:53 am 08:53 Sunny 70 21.1 59 15 68 68 SE 7 11 30.00 1016 10 16 0.00 0.00
9:53 am 09:53 Sunny 73 22.8 59 15 62 62 ESE 8 13 30.01 1016 10 16 0.00 0.00
10:53 am 10:53 Sunny 77 25 59 15 54 54 SSE 10 17 30.01 1016 10 16 0.00 0.00
11:53 am 11:53 Sunny 79 26.1 59 15 50 50 SSE 10 17 30.00 1016 10 16 0.00 0.00
12:53 pm 12:53 Sunny 80 26.7 60 15.6 51 51 SSE 10 17 29.99 1016 10 16 0.00 0.00
1:53 pm 13:53 Sunny 80 26.7 58 14.4 47 47 S 8 13 29.97 1015 10 16 0.00 0.00
2:53 pm 14:53 Mostly Sunny 82 27.8 60 15.6 47 47 S 9 15 29.95 1014 10 16 0.00 0.00
3:53 pm 15:53 Mostly Sunny 81 27.2 59 15 47 47 S 10 17 29.95 1014 10 16 0.00 0.00
4:53 pm 16:53 Mostly Sunny 80 26.7 60 15.6 51 51 S 8 13 29.93 1014 10 16 0.00 0.00
5:53 pm 17:53 Mostly Sunny 78 25.6 62 16.7 58 58 S 10 17 29.92 1013 10 16 0.00 0.00
6:15 pm 18:15 Mostly Cloudy with Nearby Thunderstorms 76 24.4 62 16.7 62 62 SW 23 37 29.92 1013 10 16 0.00 0.00
6:24 pm 18:24 Mostly Cloudy with Thunderstorms 64 17.8 61 16.1 90 90 WSW 25 41 29.97 1015 1 2 0.11 2.79
6:27 pm 18:27 Mostly Cloudy with Strong Thunderstorms 63 17.2 61 16.1 93 93 W 17 28 29.96 1015 1 1 0.20 5.08
6:42 pm 18:42 Cloudy with Strong Thunderstorms 63 17.2 62 16.7 97 97 W 7 11 29.96 1015 2 2 0.37 9.40
6:48 pm 18:48 Cloudy with Nearby Thunderstorms 63 17 63 17 100 100 SW 7 11 29.96 1015 2 3 0.38 9.65
6:53 pm 18:53 Cloudy with Nearby Thunderstorms 63 17.2 62 16.7 97 97 Calm 29.98 1015 4 6 0.39 9.91
7:16 pm 19:16 Partly Cloudy 63 17.2 61 16.1 93 93 NNE 6 9 29.92 1013 10 16 0.00 0.00
7:53 pm 19:53 Mostly Cloudy 64 17.8 62 16.7 93 93 Calm 29.97 1015 10 16 0.00 0.00
8:53 pm 20:53 Partly Cloudy 64 17.8 62 16.7 93 93 ESE 5 7 29.93 1014 10 16 0.05 1.27
9:53 pm 21:53 Partly Cloudy 63 17.2 62 16.7 97 97 SE 8 13 29.94 1014 10 16 0.00 0.00
10:53 pm 22:53 Clear 63 17.2 61 16.1 93 93 SE 8 13 29.91 1013 10 16 0.00 0.00
11:53 pm 23:53 Mostly Clear 64 17.8 62 16.7 93 93 SSE 8 13 29.93 1014 10 16 0.00 0.00

Powered by AerisWeather